Location: Unspecified
(40.2512°N, 0.0000°E)
Time: 03:58:43
(UTC+00:00)

ACS3 Solar Sail - Visible Passes

Search period start: 05 April 2026 00:00
Search period end: 15 April 2026 00:00
Orbit: 874 x 980 km, 97.2° (Epoch: 29 March)

Date Brightness Start Highest point End Pass type
(mag) Time Alt. Az. Time Alt. Az. Time Alt. Az.
5 Apr 4.2 00:12:23 10° NE 00:13:21 13° NE 00:13:21 13° NE visible
5 Apr 3.1 01:53:50 10° N 01:56:56 31° NNW 01:56:56 31° NNW visible
6 Apr 4.0 00:22:07 10° NE 00:23:41 17° NE 00:23:41 17° NE visible
6 Apr 3.1 02:04:03 10° N 02:07:17 30° NNW 02:07:17 30° NNW visible
7 Apr 3.8 00:31:54 10° NNE 00:33:58 20° NE 00:33:58 20° NE visible
7 Apr 3.1 02:14:14 10° N 02:17:34 28° NNW 02:17:34 28° NNW visible
8 Apr 3.6 00:41:41 10° NNE 00:44:12 24° NE 00:44:12 24° NE visible
8 Apr 3.2 02:24:26 10° N 02:27:47 26° NW 02:27:47 26° NW visible
9 Apr 3.4 00:51:28 10° NNE 00:54:22 28° NE 00:54:22 28° NE visible
9 Apr 3.3 02:34:38 10° NNW 02:37:57 23° NW 02:37:57 23° NW visible
10 Apr 3.2 01:01:15 10° NNE 01:04:28 32° NNE 01:04:28 32° NNE visible
10 Apr 3.4 02:44:49 10° NNW 02:48:03 20° NW 02:48:03 20° NW visible
11 Apr 3.0 01:11:02 10° NNE 01:14:31 37° NNE 01:14:31 37° NNE visible
11 Apr 3.5 02:55:05 10° NNW 02:58:05 17° NW 02:58:05 17° NW visible
12 Apr 2.8 01:20:48 10° N 01:24:31 40° N 01:24:31 40° N visible
12 Apr 3.7 03:05:25 10° NNW 03:08:04 14° WNW 03:08:04 14° WNW visible
12 Apr 4.2 23:50:02 10° NE 23:50:52 12° ENE 23:50:52 12° ENE visible
13 Apr 2.7 01:30:31 10° N 01:34:26 42° N 01:34:26 42° N visible
13 Apr 3.8 03:16:06 10° NW 03:17:55 11° WNW 03:18:00 11° WNW visible
13 Apr 4.0 23:59:06 10° NE 00:00:45 15° ENE 00:00:45 15° ENE visible
14 Apr 2.7 01:40:13 10° N 01:44:18 42° NNW 01:44:18 42° NNW visible
